| time (UTC) | temp F | wind direction | speed MPH | gust MPH | rain 1hr in | rain 24hr in | rain mn in | humidity % | barometer mb |
| 20260506101537 | 55 | 0 | 0.0 | 0.0 | 0.00 | 0.00 | 0.00 | 88 | 1018.6 |
| 20260506100039 | 55 | 0 | 0.0 | 0.0 | 0.00 | 0.00 | 0.00 | 88 | 1018.6 |
| 20260506094540 | 55 | 0 | 0.0 | 0.0 | 0.00 | 0.00 | 0.00 | 87 | 1018.5 |
| 20260506093035 | 55 | 0 | 0.0 | 0.0 | 0.00 | 0.00 | 0.00 | 87 | 1018.5 |
| 20260506091537 | 55 | 0 | 0.0 | 0.0 | 0.00 | 0.00 | 0.00 | 88 | 1018.5 |
| 20260506090036 | 56 | 0 | 0.0 | 0.0 | 0.00 | 0.00 | 0.00 | 88 | 1018.5 |
| 20260506084540 | 56 | 0 | 0.0 | 0.0 | 0.00 | 0.01 | 0.00 | 88 | 1018.5 |
| 20260506083039 | 56 | 0 | 0.0 | 0.0 | 0.00 | 0.01 | 0.00 | 87 | 1018.6 |
| 20260506081536 | 56 | 0 | 0.0 | 0.0 | 0.00 | 0.01 | 0.00 | 87 | 1018.5 |
| 20260506073037 | 56 | 0 | 0.0 | 0.0 | 0.00 | 0.08 | 0.00 | 85 | 1018.3 |
| 20260506071541 | 56 | 0 | 0.0 | 0.0 | 0.00 | 0.08 | 0.00 | 85 | 1018.2 |
| 20260506061535 | 57 | 278 | 0.0 | 2.0 | 0.00 | 0.13 | 0.08 | 84 | 1017.6 |
| 20260506044544 | 57 | 0 | 0.0 | 0.0 | 0.00 | 0.36 | 0.08 | 86 | 1016.9 |
| 20260506043035 | 57 | 0 | 0.0 | 0.0 | 0.00 | 0.36 | 0.08 | 85 | 1016.8 |
| 20260506041536 | 57 | 0 | 0.0 | 1.0 | 0.00 | 0.36 | 0.08 | 85 | 1016.5 |
| 20260506040036 | 58 | 0 | 0.0 | 0.0 | 0.00 | 0.36 | 0.08 | 83 | 1016.1 |
| 20260506034538 | 58 | 0 | 0.0 | 0.0 | 0.00 | 0.58 | 0.08 | 82 | 1016.2 |
| 20260506033039 | 58 | 0 | 0.0 | 0.0 | 0.00 | 0.58 | 0.08 | 82 | 1016.2 |
| 20260506031538 | 58 | 0 | 0.0 | 0.0 | 0.00 | 0.58 | 0.08 | 82 | 1015.9 |
| 20260506030055 | 59 | 0 | 0.0 | 1.0 | 0.00 | 0.58 | 0.08 | 79 | 1015.7 |
| 20260506024547 | 60 | 0 | 0.0 | 2.0 | 0.00 | 0.75 | 0.08 | 77 | 1015.5 |
| 20260506023039 | 60 | 255 | 0.0 | 1.0 | 0.00 | 0.75 | 0.08 | 76 | 1015.3 |
| 20260506021537 | 60 | 0 | 0.0 | 6.0 | 0.00 | 0.75 | 0.08 | 76 | 1015.1 |
| 20260506020035 | 61 | 0 | 0.0 | 3.0 | 0.00 | 0.75 | 0.08 | 75 | 1014.9 |
| 20260506014543 | 61 | 59 | 0.0 | 2.0 | 0.00 | 0.93 | 0.08 | 75 | 1015.0 |
| 20260506013043 | 61 | 15 | 0.0 | 2.0 | 0.00 | 0.93 | 0.08 | 75 | 1015.1 |
| 20260506011541 | 62 | 32 | 0.0 | 1.0 | 0.00 | 0.93 | 0.08 | 74 | 1015.1 |
| 20260506010045 | 62 | 276 | 0.0 | 2.0 | 0.00 | 0.93 | 0.08 | 73 | 1014.9 |
| 20260506004546 | 62 | 290 | 0.0 | 3.0 | 0.00 | 1.04 | 0.08 | 72 | 1014.9 |
| 20260506003040 | 62 | 212 | 0.0 | 3.0 | 0.00 | 1.04 | 0.08 | 72 | 1014.8 |
| 20260506001543 | 62 | 273 | 0.0 | 3.0 | 0.00 | 1.04 | 0.08 | 72 | 1014.8 |
| 20260506000038 | 61 | 239 | 0.0 | 3.0 | 0.00 | 1.04 | 0.08 | 73 | 1014.7 |
| 20260505234536 | 61 | 259 | 0.0 | 1.0 | 0.00 | 1.20 | 0.08 | 73 | 1014.7 |
| 20260505233035 | 61 | 74 | 0.0 | 2.0 | 0.00 | 1.20 | 0.08 | 73 | 1014.6 |
| 20260505231535 | 61 | 0 | 0.0 | 1.0 | 0.00 | 1.20 | 0.08 | 73 | 1014.7 |
| 20260505230046 | 61 | 0 | 0.0 | 2.0 | 0.00 | 1.20 | 0.08 | 75 | 1014.7 |
| 20260505224537 | 61 | 47 | 0.0 | 3.0 | 0.00 | 1.27 | 0.08 | 75 | 1014.7 |
| 20260505223036 | 61 | 57 | 1.0 | 3.0 | 0.00 | 1.27 | 0.08 | 75 | 1014.8 |
| 20260505221536 | 61 | 247 | 0.0 | 2.0 | 0.00 | 1.27 | 0.08 | 73 | 1014.9 |
| 20260505220041 | 62 | 255 | 1.0 | 4.0 | 0.00 | 1.27 | 0.08 | 73 | 1015.0 |
| 20260505214541 | 62 | 0 | 0.0 | 3.0 | 0.00 | 1.33 | 0.08 | 69 | 1015.1 |
| 20260505213054 | 62 | 344 | 1.0 | 6.0 | 0.00 | 1.33 | 0.08 | 71 | 1015.1 |
| 20260505211541 | 62 | 303 | 1.0 | 3.0 | 0.00 | 1.33 | 0.08 | 74 | 1015.1 |
| 20260505210042 | 61 | 283 | 0.0 | 2.0 | 0.00 | 1.33 | 0.08 | 74 | 1015.2 |
| 20260505204537 | 61 | 272 | 1.0 | 3.0 | 0.00 | 1.34 | 0.08 | 72 | 1015.3 |
| 20260505203044 | 61 | 163 | 1.0 | 4.0 | 0.00 | 1.34 | 0.08 | 73 | 1015.2 |
| 20260505201537 | 60 | 275 | 1.0 | 5.0 | 0.00 | 1.34 | 0.08 | 74 | 1015.3 |
| 20260505200038 | 59 | 273 | 1.0 | 5.0 | 0.00 | 1.34 | 0.08 | 76 | 1015.4 |
| 20260505194535 | 59 | 257 | 1.0 | 4.0 | 0.00 | 1.38 | 0.08 | 77 | 1015.5 |
| 20260505193052 | 60 | 251 | 0.0 | 3.0 | 0.00 | 1.38 | 0.08 | 78 | 1015.5 |
| 20260505191542 | 60 | 0 | 0.0 | 2.0 | 0.00 | 1.38 | 0.08 | 78 | 1015.4 |
| 20260505190042 | 59 | 259 | 1.0 | 5.0 | 0.00 | 1.38 | 0.08 | 76 | 1015.4 |
| 20260505184535 | 59 | 272 | 1.0 | 4.0 | 0.00 | 1.39 | 0.08 | 77 | 1015.2 |
| 20260505183036 | 59 | 257 | 0.0 | 4.0 | 0.00 | 1.39 | 0.08 | 78 | 1015.2 |
| 20260505181541 | 58 | 257 | 1.0 | 4.0 | 0.00 | 1.39 | 0.08 | 79 | 1015.2 |
| 20260505180044 | 58 | 261 | 2.0 | 5.0 | 0.00 | 1.39 | 0.08 | 81 | 1015.1 |
| 20260505174538 | 57 | 70 | 0.0 | 2.0 | 0.00 | 1.45 | 0.08 | 81 | 1015.0 |
| 20260505173035 | 56 | 260 | 1.0 | 3.0 | 0.00 | 1.45 | 0.08 | 83 | 1014.9 |
| 20260505171541 | 55 | 270 | 0.0 | 5.0 | 0.00 | 1.45 | 0.08 | 88 | 1014.9 |
| 20260505170038 | 54 | 266 | 0.0 | 2.0 | 0.00 | 1.45 | 0.08 | 88 | 1015.1 |
| 20260505164540 | 53 | 274 | 0.0 | 3.0 | 0.00 | 1.48 | 0.08 | 89 | 1015.0 |
| 20260505163041 | 53 | 271 | 0.0 | 3.0 | 0.00 | 1.48 | 0.08 | 89 | 1014.9 |
| 20260505161536 | 53 | 274 | 1.0 | 5.0 | 0.00 | 1.48 | 0.08 | 90 | 1014.9 |
| 20260505153047 | 51 | 0 | 0.0 | 0.0 | 0.00 | 1.48 | 0.08 | 91 | 1014.7 |
| 20260505151548 | 51 | 0 | 1.0 | 3.0 | 0.00 | 1.48 | 0.08 | 92 | 1014.7 |
| 20260505124540 | 50 | 0 | 0.0 | 0.0 | 0.00 | 1.48 | 0.08 | 94 | 1013.8 |
| 20260505123048 | 50 | 0 | 0.0 | 0.0 | 0.00 | 1.48 | 0.08 | 95 | 1013.5 |
| 20260505121537 | 50 | 0 | 0.0 | 0.0 | 0.00 | 1.48 | 0.08 | 95 | 1013.6 |
| 20260505120043 | 51 | 0 | 0.0 | 1.0 | 0.00 | 1.48 | 0.08 | 95 | 1013.5 |
| 20260505114534 | 51 | 0 | 0.0 | 0.0 | 0.00 | 1.48 | 0.08 | 95 | 1013.8 |
| 20260505113040 | 50 | 0 | 0.0 | 0.0 | 0.00 | 1.48 | 0.08 | 95 | 1013.9 |
| 20260505111536 | 51 | 0 | 0.0 | 0.0 | 0.00 | 1.48 | 0.08 | 95 | 1013.8 |